Chihuahua, Mexico

4:53 PM MDT on August 18, 2017 (GMT -0600)
Gen Div P A Roberto Fierro

Weather History for MMCU - January, 2013

Change the Weather History Date:

Saturday, January 19, 2013

  Actual Average Record
Temperature  
Mean Temperature 52 °F -  
Max Temperature 69 °F 63 °F 78 °F (1999)
Min Temperature 36 °F 33 °F 19 °F (2001)
Degree Days  
Heating Degree Days 12    
Growing Degree Days 2 (Base 50)    
Moisture  
Dew Point 23 °F    
Average Humidity 30    
Maximum Humidity 52    
Minimum Humidity 15    
Precipitation  
Precipitation 0.00 in - - ()
Sea Level Pressure  
Sea Level Pressure 30.21 in    
Wind  
Wind Speed 4 mph ()    
Max Wind Speed 14 mph    
Max Gust Speed -    
Visibility 8.5 miles    
Events      
Averages and records for this station are not official NWS values.
T = Trace of Precipitation, MM = Missing Value Source: Averaged Metar Reports

Daily Weather History Graph

Daily Weather History Graph

Search for Another Location

Airport or City:

Trip Planner

Search our weather history database for the weather conditions in past years. The results will help you decide how hot, cold, wet, or windy it might be!

Date:

Astronomy

Jan. 19, 2013 Rise Set
Actual Time 6:57 AM MST 5:32 PM MST
Civil Twilight 6:31 AM MST 5:57 PM MST
Nautical Twilight 6:02 AM MST 6:26 PM MST
Astronomical Twilight 5:34 AM MST 6:55 PM MST
Moon 11:55 AM MST (1/19) 12:40 AM MST (1/19)
Length of Visible Light 11h 26m
Length of Day
10h 35m
First Quarter, 58% of the Moon is Illuminated
Jan 19
First Quarter
Jan 26
Full
Feb 3
Last Quarter
Feb 10
New
Feb 17
First Quarter

Hourly Weather History & Observations

Time (MST) Temp. Windchill Dew Point Humidity Pressure Visibility Wind Dir Wind Speed Gust Speed Precip Events Conditions
4:50 AM 41 °F - 24 °F 37% 30.11 in 1 mi Calm Calm - -   Clear
5:45 AM 32.0 °F 26.4 °F 15.8 °F 51% 30.26 in 10.0 mi SSE 5.8 mph - N/A   Mostly Cloudy
6:42 AM 32.0 °F 25.6 °F 14.0 °F 48% 30.29 in 10.0 mi South 6.9 mph - N/A   Mostly Cloudy
7:41 AM 33.8 °F 30.8 °F 17.6 °F 52% 30.37 in 10.0 mi SSW 3.5 mph - N/A   Mostly Cloudy
7:55 AM 41 °F - 25 °F 41% 30.19 in 6 mi Calm Calm - -   Clear
8:40 AM 44.6 °F 43.1 °F 19.4 °F 37% 30.32 in 10.0 mi South 3.5 mph - N/A   Scattered Clouds
9:40 AM 51.8 °F - 21.2 °F 30% 30.34 in 10.0 mi Calm Calm - N/A   Partly Cloudy
10:40 AM 57.2 °F - 21.2 °F 25% 30.29 in 10.0 mi Calm Calm - N/A   Scattered Clouds
10:45 AM 59 °F - 27 °F 18% 30.20 in 6 mi ENE 2.2 mph - -   Scattered Clouds
11:40 AM 62.6 °F - 21.2 °F 20% 30.30 in 10.0 mi ENE 3.5 mph - N/A   Scattered Clouds
12:40 PM 66.2 °F - 23.0 °F 19% 30.25 in 10.0 mi Calm Calm - N/A   Scattered Clouds
1:42 PM 68.0 °F - 24.8 °F 20% 30.14 in 10.0 mi East 13.8 mph - N/A   Partly Cloudy
1:45 PM 68 °F - 31 °F 15% 30.04 in 6 mi ENE 6.7 mph - -   Scattered Clouds
2:40 PM 69.8 °F - 26.6 °F 20% 30.20 in 10.0 mi ENE 8.1 mph - N/A   Partly Cloudy
3:40 PM 68.0 °F - 26.6 °F 21% 30.20 in 10.0 mi East 12.7 mph - N/A   Partly Cloudy
4:40 PM 66.2 °F - 24.8 °F 21% 30.11 in 10.0 mi ENE 10.4 mph - N/A   Scattered Clouds
4:45 PM 67 °F - 30 °F 15% 29.97 in 6 mi ENE 6.7 mph - -   Scattered Clouds
5:40 PM 57.2 °F - 23.0 °F 27% 30.23 in 10.0 mi NE 5.8 mph - N/A   Partly Cloudy
6:40 PM 55.4 °F - 23.0 °F 29% 30.26 in 10.0 mi NNW 3.5 mph - N/A   Partly Cloudy
7:40 PM 56 °F - 31 °F 27% 29.99 in 1 mi West 2.2 mph - -   Scattered Clouds
7:40 PM 50.0 °F - 21.2 °F 32% 30.26 in 10.0 mi SW 4.6 mph - N/A   Scattered Clouds
8:40 PM 42.8 °F 38.6 °F 21.2 °F 42% 30.29 in 10.0 mi SSE 6.9 mph - N/A   Partly Cloudy
9:40 PM 42.8 °F 38.6 °F 21.2 °F 42% 30.30 in 10.0 mi South 6.9 mph - N/A   Scattered Clouds